{"data":{"norad_id":44078,"epoch":"2026-05-25T04:53:04.003584Z","epoch_age_seconds":50684,"freshness":"FRESH","line1":"1 44078U 19018A   26145.20351856  .00000047  00000+0  26989-4 0  9998","line2":"2 44078  98.4656 204.1281 0017316 288.3801  71.5506 14.43674300376742","mean_motion":14.436743,"eccentricity":0.0017316,"inclination_deg":98.4656,"raan_deg":204.1281,"arg_perigee_deg":288.3801,"mean_anomaly_deg":71.5506,"bstar":2.6989e-5,"rev_number":37674,"period_min":99.745489685589,"perigee_km":734.04751008419,"apogee_km":758.72115235848,"semimajor_km":7124.5213312213,"source":"CELESTRAK","updated_at":"2026-05-25T13:37:55.938495Z"}}